Hourly Data Report for October 21, 2004

SHERBROOKE A
QUEBEC

45°26'00.000" N
71°41'00.000" W
241.40 m
7028124
71610
YSC

Download Data

Hourly Data (October 2004)
Hourly Data Report for October 21, 2004
TIME
LST
Temp Definition
°C
Dew Point Definition
°C
Rel Hum Definition
%
Precip. Amount Definition
mm

Wind Dir Definition
10's deg

Wind Spd Definition
km/h
Visibility Definition
km
Stn Press Definition
kPa
Hmdx Definition


Wind Chill Definition


Weather Definition


00:00 0.4 -2.7 80   6 11 15.0 99.40      
01:00 -0.5 -3.0 83   7 9 15.0 99.41   -4  
02:00 -0.4 -2.9 83   6 11 15.0 99.43   -4  
03:00 -0.6 -2.8 85   7 9 15.0 99.42   -4  
04:00 -0.9 -3.0 86   6 4 15.0 99.46   -2  
05:00 -0.7 -2.8 86   6 9 15.0 99.48   -4  
06:00 -0.8 -2.9 86   6 9 15.0 99.51   -4  
07:00 -0.7 -2.8 86   6 11 24.1 99.58   -4 Mostly Cloudy
08:00 0.3 -2.1 84   6 9 24.1 99.58     Mostly Cloudy
09:00 2.0 -1.6 77   8 11 24.1 99.59     Mostly Cloudy
10:00 3.4 -0.4 76   5 9 24.1 99.59     Mostly Cloudy
11:00 4.8 0.0 71   5 7 24.1 99.61     Cloudy
12:00 6.4 0.5 66   5 13 24.1 99.59     Mostly Cloudy
13:00 7.1 0.7 64   6 9 24.1 99.57     Mostly Cloudy
14:00 9.3 1.6 59   3 11 24.1 99.54     Mostly Cloudy
15:00 9.1 0.2 54   2 13 24.1 99.55     Mostly Cloudy
16:00 8.4 0.6 58   3 9 24.1 99.58     Mostly Cloudy
17:00 6.3 0.3 65   4 9 15.0 99.63      
18:00 5.5 0.0 68   6 9 15.0 99.69      
19:00 3.6 -0.2 76   5 9 15.0 99.75      
20:00 3.9 0.0 76   5 9 15.0 99.77      
21:00 3.0 -0.4 78   6 9 15.0 99.76      
22:00 2.4 -0.7 80   6 9 15.0 99.75      
23:00 1.9 -0.9 82   6 9 15.0 99.76      

Notes on Data Quality.

Legend

  • E = Estimated
  • M = Missing
  • NA = Not Available*
  • [empty] = Indicates an unobserved value
Date modified: